Regional Weather Roundup
Issued by NWS Grand Forks, ND

Home | Current Version | Previous Version | Text Only | Print | Product List | Glossary Off
Versions: 1 2 3 4 5 6 7 8 9 10 11 12 13 14 15 16 17 18 19 20 21 22 23 24 25 26 27 28 29 30 31 32 33 34 35 36 37 38 39 40 41 42 43 44 45 46 47 48 49 50

000
ASUS43 KFGF 302131
RWRFGF
PRAIRIE TO PINES  WEATHER ROUNDUP
NATIONAL WEATHER SERVICE EASTERN NORTH DAKOTA/GRAND FORKS ND
400 PM CDT SAT JUL 30 2016

 **SATELLITE DATA USED TO AUGMENT SKY COVER AT AUTOMATED STATIONS**
 *****  WEATHER ACROSS EASTERN NORTH DAKOTA  *****

CITY           SKY/WX    TMP DP  RH WIND       PRES   REMARKS
GRAND FORKS    PTSUNNY   82  62  50 S15       29.90F
GRAND FRKS AFB CLOUDY    79  62  57 S13       29.91F
DEVILS LAKE    NOT AVBL
FARGO          PTSUNNY   81  61  50 SE14G22   29.93F
WAHPETON ARPT  FAIR      79  55  44 SE14      29.95F
$$

 ***** WEATHER ACROSS CENTRAL AND WESTERN NORTH DAKOTA  *****

CITY           SKY/WX    TMP DP  RH WIND       PRES   REMARKS
BISMARCK       MOSUNNY   85  67  54 S13       29.84F
MINOT          FAIR      88  59  37 SE5       29.82F
JAMESTOWN      FAIR      79  61  53 S14       29.90F
MINOT AFB      FAIR      83  58  41 S8        29.82S
GARRISON         N/A     83  65  54 SE3       29.84F
WILLISTON      SUNNY     88  46  23 VRB5G17   29.81F
DICKINSON      SUNNY     84  50  30 VRB5      29.83F
HETTINGER      MOSUNNY   92  55  28 SE9       29.85F HX  90
$$

 *****  OTHER AIRPORT OBSERVATIONS IN OUR AREA  *****

CITY           SKY/WX    TMP DP  RH WIND       PRES   REMARKS
WALHALLA       FAIR      81  77  89 S14G22    29.87S
GRAFTON AIRPOR FAIR      77  66  69 S13G18    29.91S
VALLEY CITY AR FAIR      79  63  57 S15G23    29.94S
CANDO          MOCLDY    77  68  73 S10       29.90S
CAVALIER APRT  FAIR      81  66  61 S15G21    29.88S
GWINNER        FAIR      82  61  47 S13G18    29.93F
SHEYENNE NWR     N/A     84  58  41 S14       29.95S
ROLLA            N/A     77  64  65 S13       29.88F
 ***** THE ABOVE OBSERVATIONS ARE NON NWS ARE NOT QUALITY
       CONTROLLED AND MAY MIS-REPORT RAIN FOR SNOW...
$$

  *****  WEATHER ACROSS NORTHERN MINNESOTA  *****

CITY           SKY/WX    TMP DP  RH WIND       PRES   REMARKS
FLAG ISLAND    FAIR      77  64  65 S8        29.93F
WARROAD        FAIR      79  64  61 SW9G16    29.95R
ROSEAU         FAIR      77  64  65 S13G22    29.93S
HALLOCK        FAIR      73  68  83 SW7       29.90R
THF RVR FALLS  FAIR      79  62  56 S14       29.95F
BAUDETTE       FAIR      77  59  53 S13G21    29.97F
WASKISH        FAIR      75  63  64 SW3       29.99F
CROOKSTON      FAIR      81  61  50 S14       29.93F
STEPHEN NDAWN    N/A     75  63  64 S7          N/A
GREENBUSH NDAW   N/A     84  61  45 S15         N/A
$$
  *****  WEATHER ACROSS CENTRAL AND WEST MINNESOTA  *****

CITY           SKY/WX    TMP DP  RH WIND       PRES   REMARKS
FOSSTON        PTSUNNY   75  61  60 S12       29.98F
BEMIDJI        FAIR      73  60  62 SE9       30.00F
PARK RAPIDS    FAIR      80  56  43 S9        30.00F
ELBOW LAKE     FAIR      78  59  53 E10       29.99S
WADENA         FAIR      77  57  50 SE5       30.00S
DETROIT LAKES  FAIR      79  59  50 S10       30.00S
MOORHEAD       FAIR      79  61  53 SE9       29.95S
FERGUS FALLS   FAIR      79  59  50 SE8       29.98F
MORRIS MN      FAIR      81  54  39 SE12      29.98S
STAPLES        FAIR      79  54  41 S5        30.00F
$$
  *****  WEATHER ELSEWHERE ACROSS MINNESOTA  *****

CITY           SKY/WX    TMP DP  RH WIND       PRES   REMARKS
DULUTH         FAIR      74  62  66 SE9       30.04S
INTRNTL FALLS  PTSUNNY   75  58  55 S5        29.98F
ELY            FAIR      77  50  38 SW5       30.03S
CLOQUET        FAIR      75  61  60 E5        30.03S
WHEATON        FAIR      81  63  54 SE14      29.98S
BRAINERD       FAIR      77  58  51 SE7       30.01F
HIBBING        PTSUNNY   74  51  44 SE7       30.02F
ALEXANDRIA     FAIR      77  55  46 SE9       30.01F
SAINT CLOUD    FAIR      80  62  54 S7        30.00S
MINNEAPOLIS    PTSUNNY   80  62  54 S10       29.99F
$$

  *****  WEATHER ACROSS SOUTH DAKOTA  *****

CITY           SKY/WX    TMP DP  RH WIND       PRES   REMARKS
SIOUX FALLS    FAIR      80  57  45 S10G17    29.97F
BROOKINGS      FAIR      78  59  51 SE8       29.98S
WATERTOWN      FAIR      81  58  45 S13G20    29.97F
HURON          SUNNY     85  57  38 SE13G22   29.91F
SISSETON         N/A     80  59  48 SE13      29.94F
ABERDEEN       SUNNY     84  58  40 SE14G22   29.91F
MITCHELL       MOSUNNY   84  60  44 S14G24    29.93F
PIERRE         MOSUNNY   89  61  38 SE14G24   29.83F
MOBRIDGE       SUNNY     93  53  25 SE14      29.82F HX  90
RAPID CITY     MOSUNNY   86  55  34 VRB5      29.84F THUNDER
$$

  *****  SOME WEATHER IN NEARBY STATES *****

CITY           SKY/WX    TMP DP  RH WIND       PRES   REMARKS
GLASGOW MT     SUNNY     89  52  28 SE10G21   29.75F
GREAT FALLS MT MOSUNNY   93  38  14 SW15G23   29.75F
CHEYENNE WY    MOSUNNY   86  47  25 E8        30.07F
SCOTTSBLUFF NE SUNNY     87  62  43 E15       29.95F
OMAHA NE       FAIR      81  63  54 SE8       29.98F
DES MOINES IA  PTSUNNY   79  65  62 S6        29.98F
DAVENPORT IA   FAIR      81  65  58 CALM      29.98F
CHICAGO IL     PTSUNNY   77  64  64 NE10      29.98S
EAU CLAIRE WI  FAIR      80  61  52 E9        30.01F
LA CROSSE WI   FAIR      81  64  56 S7        29.99F
$$

  *****  SOME NATIONAL WEATHER *****

CITY           SKY/WX    TMP DP  RH WIND       PRES   REMARKS
LA GUARDIA NY  LGT RAIN  78  73  84 S9        30.01R
RALEIGH NC     PTSUNNY   90  73  57 W3        29.93R HX  98
ATLANTA GA     PTSUNNY   79  73  82 W6        30.02F
NEW ORLEANS LA PTSUNNY   88  76  67 S8        30.01S HX  99
OKLAHOMA CITY  FAIR      90  74  59 VRB3      29.95F HX  99
ALBUQUERQUE NM MOSUNNY   89  46  22 SW9       30.08F
SALT LAKE CITY PTSUNNY   88  47  24 S30G40    29.97R THUNDER
LOS ANGELES CA MOSUNNY   77  66  68 W12       29.85F
BOISE ID       SUNNY     97  42  15 N12G17    29.81F HX  93
SEATTLE WA     MOSUNNY   70  54  56 SW13      29.98F
$$

*** WEATHER ACROSS MANITOBA...SASKATCHEWAN AND ONTARIO ***
                ***ONTARIO***

CITY           SKY/WX    TMP DP  RH WIND       PRES   REMARKS
GERALDTON        N/A     79  46  31 S12       30.04F
THUNDER BAY    PTSUNNY   75  54  46 E10       30.05F
SIOUX LOOKOUT  PTSUNNY   79  54  41 S10G17    29.98F
TORONTO        PTSUNNY   77  52  41 E15G22    30.01F
BIG TROUT LK   MOSUNNY   77  59  53 S12G18    29.89S
PICKLE LAKE    MOSUNNY   82  50  32 S15G22    29.96F
DRYDEN         MOSUNNY   77  54  44 SW14      29.97F
KENORA         LGT RAIN  73  63  68 S12       29.96S
$$
                *** MANITOBA***

CITY           SKY/WX    TMP DP  RH WIND       PRES   REMARKS
BRANDON        MOSUNNY   84  61  45 S9        29.83F
DAUPHIN        SUNNY     84  59  42 SW8       29.79F
ISLAND LAKE    PTSUNNY   79  63  57 SE8       29.83F THUNDER
PILOT MOUND      N/A     79  61  53 S13         N/A
THE PAS        PTSUNNY   81  61  50 S10       29.74F
THOMPSON       PTSUNNY   75  61  60 VRB3      29.77F
WINNIPEG       MOSUNNY   82  64  54 S14G20    29.86F
LYNN LAKE      CLOUDY    68  59  73 MISG      29.79F
CHURCHILL      CLOUDY    54  48  82 E14       29.92F
GILLAM         PTSUNNY   66  61  82 E7        29.80S
$$
                ***SASKATCHEWAN***

CITY           SKY/WX    TMP DP  RH WIND       PRES   REMARKS
ESTEVAN        MOSUNNY   82  59  44 E3        29.82F
KINDERSLEY     MOSUNNY   79  59  50 SW17      29.71S
LLOYDMINSTER   LGT RAIN  61  59  94 N9        29.74F
PRINCE ALBERT  PTSUNNY   81  63  54 S10       29.72S
REGINA         MOSUNNY   82  57  42 S8        29.79F
YORKTON        SUNNY     81  59  47 VRB2      29.79F
N. BATTLEFORD  NOT AVBL
LA RONGE       PTSUNNY   79  61  53 NE10      29.69F
SASKATOON      CLOUDY    79  55  44 SE14G20   29.74F
SWIFT CURRENT  PTSUNNY   68  61  77 SE14G23   29.77R THUNDER
$$
NOTE: THESE ARE AUTOMATED STATIONS WITH LIMITED QUALITY CONTROL
      "FAIR" INDICATES FEW OR NO CLOUDS BELOW 12,000 FEET WITH NO
      SIGNIFICANT WEATHER AND/OR OBSTRUCTIONS TO VISIBILITY.
      SKY/WX - SKY CONDITION AND SIGNIFICANT WEATHER.
      TMP - AIR TEMPERATURE.    DP   - DEWPOINT TEMPERATURE.
      RH  - RELATIVE HUMIDITY.  PRES - PRESSURE.
      HX  - HEAT INDEX.         WCI  - WIND CHILL INDEX.
$




USA.gov is the U.S. government's official web portal to all federal, state and local government web resources and services.